DW4465 Weather Reports


time (UTC)temp
C
wind
direction
speed
KPH
gust
KPH
rain 1hr
cm
rain 24hr
cm
rain mn
cm
humidity
%
barometer
mb
20260902134547 14 0 0.0 0.0 0.00 0.00 0.00 86 1015.7
20260902133047 15 0 0.0 0.0 0.00 0.00 0.00 85 1015.4
20260902131559 15 0 0.0 0.0 0.00 0.00 0.00 85 1015.5
20260902130047 15 0 0.0 0.0 0.00 0.00 0.00 85 1015.4
20260902124557 15 0 0.0 0.0 0.00 0.00 0.00 85 1015.4
20260902123045 15 0 0.0 0.0 0.00 0.00 0.00 85 1015.5
20260902121550 15 0 0.0 0.0 0.00 0.00 0.00 85 1015.7
20260902120048 16 0 0.0 0.0 0.00 0.00 0.00 85 1015.6
20260902114546 16 0 0.0 0.0 0.00 0.00 0.00 84 1015.6
20260902113059 16 0 0.0 0.0 0.00 0.00 0.00 84 1015.7
20260902111556 16 0 0.0 0.0 0.00 0.00 0.00 84 1015.6
20260902110047 16 0 0.0 0.0 0.00 0.00 0.00 84 1015.6
20260902104546 16 0 0.0 0.0 0.00 0.00 0.00 83 1015.6
20260902103048 16 0 0.0 0.0 0.00 0.00 0.00 83 1015.7
20260902101604 16 0 0.0 0.0 0.00 0.00 0.00 83 1015.7
20260902100049 16 0 0.0 0.0 0.00 0.00 0.00 83 1015.7
20260902094551 16 0 0.0 0.0 0.00 0.00 0.00 82 1015.8
20260902093045 16 0 0.0 0.0 0.00 0.00 0.00 82 1015.7
20260902091551 16 0 0.0 0.0 0.00 0.00 0.00 81 1015.7
20260902090047 16 0 0.0 0.0 0.00 0.00 0.00 81 1015.7
20260902084551 16 0 0.0 0.0 0.00 0.00 0.00 81 1015.8
20260902083046 17 0 0.0 0.0 0.00 0.00 0.00 80 1015.8
20260902081552 17 0 0.0 0.0 0.00 0.00 0.00 80 1015.9
20260902080059 17 0 0.0 0.0 0.00 0.00 0.00 79 1016.0
20260902074546 17 0 0.0 0.0 0.00 0.00 0.00 79 1016.0
20260902073044 17 0 0.0 0.0 0.00 0.00 0.00 79 1015.8
20260902071555 17 0 0.0 0.0 0.00 0.00 0.00 78 1015.6
20260902070051 17 0 0.0 0.0 0.00 0.00 0.00 77 1015.4
20260902064555 17 0 0.0 0.0 0.00 0.00 0.00 77 1015.4
20260902063047 18 0 0.0 0.0 0.00 0.00 0.00 76 1015.4
20260902060050 18 0 0.0 0.0 0.00 0.00 0.00 75 1015.3
20260902054550 18 0 0.0 0.0 0.00 0.00 0.00 75 1015.3
20260902053046 19 0 0.0 0.0 0.00 0.00 0.00 74 1015.3
20260902051556 19 0 0.0 3.2 0.00 0.00 0.00 74 1015.3
20260902050100 20 0 0.0 1.6 0.00 0.00 0.00 74 1015.1
20260902044547 20 0 0.0 3.2 0.00 0.00 0.00 74 1015.1
20260902043056 20 0 0.0 4.8 0.00 0.00 0.00 74 1014.9
20260902041555 20 317 0.0 4.8 0.00 0.00 0.00 73 1014.8
20260902040050 20 0 0.0 4.8 0.00 0.00 0.00 73 1014.5
20260902034552 20 313 1.6 9.7 0.00 0.00 0.00 73 1014.3
20260902033052 21 0 0.0 8.0 0.00 0.00 0.00 73 1014.2
20260902031547 21 0 1.6 4.8 0.00 0.00 0.00 72 1014.1
20260902030047 21 294 1.6 8.0 0.00 0.00 0.00 70 1013.9
20260902024547 21 325 1.6 6.4 0.00 0.00 0.00 69 1013.7
20260902023104 22 289 1.6 6.4 0.00 0.00 0.00 68 1013.5
20260902021608 22 0 1.6 9.7 0.00 0.00 0.00 67 1013.5
20260902020055 23 273 1.6 4.8 0.00 0.00 0.00 66 1013.6
20260902014543 23 330 1.6 6.4 0.00 0.00 0.00 64 1013.6
20260902013048 23 296 3.2 6.4 0.00 0.00 0.00 63 1013.6
20260902011548 24 331 1.6 8.0 0.00 0.00 0.00 61 1013.6
20260902010057 24 277 3.2 12.9 0.00 0.00 0.00 59 1013.7
20260902004547 25 242 3.2 8.0 0.00 0.00 0.00 57 1013.7
20260902003056 26 280 3.2 12.9 0.00 0.00 0.00 54 1013.7
20260902001547 26 303 4.8 12.9 0.00 0.00 0.00 54 1013.8
20260902000054 27 279 3.2 16.1 0.00 0.00 0.00 54 1013.8
20260901234750 27 281 4.8 12.9 0.00 0.00 0.00 53 1013.9
20260901233043 28 30 4.8 11.3 0.00 0.00 0.00 52 1013.8
20260901231551 28 246 3.2 12.9 0.00 0.00 0.00 51 1013.7
20260901230123 28 288 1.6 16.1 0.00 0.00 0.00 52 1013.7
20260901224556 28 303 1.6 12.9 0.00 0.00 0.00 51 1013.8
20260901223108 29 0 3.2 8.0 0.00 0.00 0.00 50 1013.9
20260901221549 28 240 8.0 16.1 0.00 0.00 0.00 44 1014.1
20260901220058 28 182 8.0 16.1 0.00 0.00 0.00 42 1014.2
20260901214545 28 203 6.4 14.5 0.00 0.00 0.00 44 1014.3
20260901213053 27 204 3.2 17.7 0.00 0.00 0.00 46 1014.4
20260901211553 27 167 4.8 16.1 0.00 0.00 0.00 47 1014.5
20260901210048 27 211 6.4 16.1 0.00 0.00 0.00 48 1014.6
20260901204555 27 188 6.4 17.7 0.00 0.00 0.00 50 1014.7
20260901203054 27 198 4.8 14.5 0.00 0.00 0.00 52 1014.9
20260901201548 27 185 9.7 17.7 0.00 0.00 0.00 54 1015.1
20260901200056 27 195 4.8 14.5 0.00 0.00 0.00 56 1015.2
20260901194601 26 222 3.2 14.5 0.00 0.00 0.00 58 1015.2
20260901193053 26 197 4.8 12.9 0.00 0.00 0.00 59 1015.4
20260901191549 26 148 4.8 11.3 0.00 0.00 0.00 60 1015.6
20260901184553 26 250 3.2 11.3 0.00 0.00 0.00 62 1015.8
20260901183050 26 147 6.4 12.9 0.00 0.00 0.00 62 1015.7
20260901181554 26 220 3.2 11.3 0.00 0.00 0.00 63 1015.7
20260901180043 25 175 1.6 9.7 0.00 0.00 0.00 62 1015.7
20260901174551 24 0 1.6 6.4 0.00 0.00 0.00 65 1015.8
20260901173104 24 178 3.2 8.0 0.00 0.00 0.00 67 1015.7
20260901171554 23 0 0.0 9.7 0.00 0.00 0.00 70 1015.6
20260901170050 22 187 0.0 4.8 0.00 0.00 0.00 74 1015.6
20260901164558 22 313 1.6 4.8 0.00 0.00 0.00 76 1015.6
20260901163044 21 234 0.0 4.8 0.00 0.00 0.00 81 1015.5
20260901161551 20 0 1.6 6.4 0.00 0.00 0.00 83 1015.6
20260901160050 20 183 0.0 4.8 0.00 0.00 0.00 85 1015.5
20260901154546 19 182 1.6 8.0 0.00 0.00 0.00 86 1015.6
20260901153058 19 0 0.0 6.4 0.00 0.00 0.00 87 1015.6
20260901151555 18 0 0.0 1.6 0.00 0.00 0.00 88 1015.4
20260901150046 18 121 0.0 3.2 0.00 0.00 0.00 88 1015.3
20260901144559 18 0 0.0 4.8 0.00 0.00 0.00 88 1015.0
20260901143046 18 128 0.0 3.2 0.00 0.00 0.00 88 1015.1
20260901141556 17 0 0.0 1.6 0.00 0.00 0.00 88 1015.1
20260901140048 17 0 0.0 1.6 0.00 0.00 0.00 88 1015.0